TimeEST,TemperatureF,Dew PointF,Humidity,Sea Level PressureIn,VisibilityMPH,Wind Direction,Wind SpeedMPH,Gust SpeedMPH,PrecipitationIn,Events,Conditions,WindDirDegrees,DateUTC
12:28 AM,42.8,41.0,93,30.03,3.0,Calm,Calm,-,N/A,,Overcast,0,2012-12-08 05:28:00
12:51 AM,42.8,42.8,100,30.03,3.0,Calm,Calm,-,0.00,Rain,Light Rain,0,2012-12-08 05:51:00
12:53 AM,43.0,42.1,97,30.03,3.0,Calm,Calm,-,0.00,Rain,Light Rain,0,2012-12-08 05:53:00
1:02 AM,42.8,41.0,93,30.03,3.0,Calm,Calm,-,0.00,Rain,Light Rain,0,2012-12-08 06:02:00
1:23 AM,42.8,41.0,93,30.03,3.0,Calm,Calm,-,0.00,,Overcast,0,2012-12-08 06:23:00
1:45 AM,42.8,41.0,93,30.03,2.0,Calm,Calm,-,0.00,,Overcast,0,2012-12-08 06:45:00
1:53 AM,42.1,41.0,96,30.03,2.0,Calm,Calm,-,0.00,,Overcast,0,2012-12-08 06:53:00
2:05 AM,42.8,41.0,93,30.03,1.8,Calm,Calm,-,N/A,,Overcast,0,2012-12-08 07:05:00
2:53 AM,42.1,41.0,96,30.02,1.2,Calm,Calm,-,N/A,,Overcast,0,2012-12-08 07:53:00
3:53 AM,42.1,41.0,96,30.01,1.8,Calm,Calm,-,0.02,Rain,Light Rain,0,2012-12-08 08:53:00
4:53 AM,42.1,41.0,96,29.99,1.0,Calm,Calm,-,0.04,Rain,Light Rain,0,2012-12-08 09:53:00
5:22 AM,42.8,42.8,100,29.99,2.0,Calm,Calm,-,0.03,Rain,Light Rain,0,2012-12-08 10:22:00
5:31 AM,42.8,42.8,100,29.99,2.0,Calm,Calm,-,0.04,Rain,Light Rain,0,2012-12-08 10:31:00
5:45 AM,42.8,41.0,93,29.99,1.8,Calm,Calm,-,0.05,Rain,Light Rain,0,2012-12-08 10:45:00
6:15 AM,42.8,42.8,100,29.99,1.5,Calm,Calm,-,0.02,Rain,Light Rain,0,2012-12-08 11:15:00
6:44 AM,42.8,42.8,100,29.99,1.5,Calm,Calm,-,0.04,Rain,Light Rain,0,2012-12-08 11:44:00
6:51 AM,42.8,42.8,100,29.99,1.5,Calm,Calm,-,0.04,,Overcast,0,2012-12-08 11:51:00
6:53 AM,43.0,42.1,97,29.99,1.8,Calm,Calm,-,0.04,,Overcast,0,2012-12-08 11:53:00
7:01 AM,44.6,42.8,93,29.98,3.0,Calm,Calm,-,N/A,,Overcast,0,2012-12-08 12:01:00
7:36 AM,44.6,42.8,93,29.97,2.5,Calm,Calm,-,N/A,,Overcast,0,2012-12-08 12:36:00
7:43 AM,44.6,42.8,93,29.97,4.0,Calm,Calm,-,N/A,,Overcast,0,2012-12-08 12:43:00
7:51 AM,44.6,42.8,93,29.96,4.0,Calm,Calm,-,N/A,,Overcast,0,2012-12-08 12:51:00
7:53 AM,44.1,43.0,96,29.96,3.0,Calm,Calm,-,N/A,,Overcast,0,2012-12-08 12:53:00
8:08 AM,44.6,42.8,93,29.96,1.0,ENE,3.5,-,N/A,,Overcast,70,2012-12-08 13:08:00
8:21 AM,44.6,42.8,93,29.96,1.0,Calm,Calm,-,N/A,,Overcast,0,2012-12-08 13:21:00
8:32 AM,44.6,42.8,93,29.95,1.0,Calm,Calm,-,0.01,Rain,Light Rain,0,2012-12-08 13:32:00
8:53 AM,45.0,43.0,93,29.95,1.5,NNE,3.5,-,0.03,Rain,Light Rain,20,2012-12-08 13:53:00
9:06 AM,44.6,42.8,93,29.94,2.0,North,4.6,-,0.00,Rain,Light Rain,10,2012-12-08 14:06:00
9:17 AM,44.6,44.6,100,29.94,1.8,NE,4.6,-,0.02,Rain,Light Rain,50,2012-12-08 14:17:00
9:42 AM,44.6,44.6,100,29.92,1.8,ENE,5.8,-,0.06,Rain,Light Rain,60,2012-12-08 14:42:00
9:51 AM,46.4,44.6,93,29.93,2.0,North,3.5,-,0.06,Rain,Light Rain,10,2012-12-08 14:51:00
9:53 AM,46.0,44.1,93,29.93,2.0,North,4.6,-,0.06,Rain,Light Rain,10,2012-12-08 14:53:00
10:05 AM,46.4,44.6,93,29.93,4.0,North,5.8,-,0.01,,Overcast,10,2012-12-08 15:05:00
10:16 AM,46.4,44.6,93,29.92,7.0,North,4.6,-,0.01,,Overcast,10,2012-12-08 15:16:00
10:48 AM,46.4,44.6,93,29.91,2.0,NNE,5.8,-,0.01,Rain,Light Rain,30,2012-12-08 15:48:00
10:53 AM,46.9,44.1,90,29.91,2.0,NNE,6.9,-,0.01,Rain,Light Rain,20,2012-12-08 15:53:00
11:04 AM,46.4,44.6,93,29.91,1.0,North,6.9,-,0.01,Rain,Light Rain,350,2012-12-08 16:04:00
11:36 AM,46.4,44.6,93,29.89,1.0,North,5.8,-,0.03,,Overcast,360,2012-12-08 16:36:00
11:53 AM,46.0,44.1,93,29.88,1.0,North,5.8,-,0.03,,Overcast,350,2012-12-08 16:53:00
12:53 PM,45.0,43.0,93,29.86,1.5,NNW,5.8,-,N/A,,Overcast,340,2012-12-08 17:53:00
1:34 PM,44.6,42.8,93,29.86,1.5,North,5.8,-,N/A,,Overcast,350,2012-12-08 18:34:00
1:53 PM,45.0,43.0,93,29.86,1.5,North,3.5,-,N/A,,Overcast,10,2012-12-08 18:53:00
2:00 PM,44.6,42.8,93,29.86,2.5,Calm,Calm,-,N/A,,Overcast,0,2012-12-08 19:00:00
2:20 PM,44.6,42.8,93,29.86,1.5,North,3.5,-,N/A,,Overcast,350,2012-12-08 19:20:00
2:53 PM,44.1,42.1,93,29.87,2.0,North,3.5,-,N/A,,Overcast,360,2012-12-08 19:53:00
3:53 PM,44.1,42.1,93,29.88,2.0,NNW,3.5,-,N/A,,Overcast,330,2012-12-08 20:53:00
4:50 PM,42.8,41.0,93,29.89,2.0,Calm,Calm,-,N/A,,Overcast,0,2012-12-08 21:50:00
4:53 PM,43.0,41.0,93,29.89,2.0,Calm,Calm,-,N/A,,Overcast,0,2012-12-08 21:53:00
5:00 PM,42.8,42.8,100,29.89,3.0,Calm,Calm,-,N/A,,Overcast,0,2012-12-08 22:00:00
5:53 PM,43.0,41.0,93,29.89,3.0,Calm,Calm,-,N/A,,Overcast,0,2012-12-08 22:53:00
6:04 PM,42.8,41.0,93,29.90,2.5,Calm,Calm,-,N/A,,Overcast,0,2012-12-08 23:04:00
6:11 PM,42.8,42.8,100,29.90,3.0,Calm,Calm,-,N/A,,Overcast,0,2012-12-08 23:11:00
6:28 PM,42.8,42.8,100,29.90,2.5,Calm,Calm,-,N/A,,Overcast,0,2012-12-08 23:28:00
6:39 PM,42.8,42.8,100,29.90,2.0,Calm,Calm,-,N/A,,Overcast,0,2012-12-08 23:39:00
6:53 PM,43.0,42.1,97,29.91,2.0,Calm,Calm,-,N/A,,Overcast,0,2012-12-08 23:53:00
7:06 PM,42.8,42.8,100,29.91,1.5,Calm,Calm,-,N/A,,Overcast,0,2012-12-09 00:06:00
7:26 PM,42.8,42.8,100,29.92,2.5,Calm,Calm,-,N/A,,Overcast,0,2012-12-09 00:26:00
7:53 PM,43.0,42.1,97,29.93,3.0,Calm,Calm,-,N/A,,Overcast,0,2012-12-09 00:53:00
8:32 PM,42.8,42.8,100,29.91,2.0,SSE,3.5,-,N/A,,Overcast,150,2012-12-09 01:32:00
8:53 PM,43.0,42.1,97,29.91,2.5,Calm,Calm,-,N/A,,Overcast,0,2012-12-09 01:53:00
9:53 PM,44.1,43.0,96,29.93,5.0,Calm,Calm,-,N/A,,Overcast,0,2012-12-09 02:53:00
10:38 PM,44.6,42.8,93,29.94,5.0,Calm,Calm,-,N/A,,Mostly Cloudy,0,2012-12-09 03:38:00
10:53 PM,45.0,43.0,93,29.95,5.0,Calm,Calm,-,N/A,,Mostly Cloudy,0,2012-12-09 03:53:00
11:53 PM,46.0,44.1,93,29.96,5.0,Calm,Calm,-,N/A,,Scattered Clouds,0,2012-12-09 04:53:00